GEFSCGP_500_meanwind_180.txt.gz
Wind_Speed
4 4 5 5 8 10 11 13 16 18 19 20 21 22 24 25 25 26 27 27 29 30 31 31 30 31 30 31 32 32 33 33 34 33 34 35 35 36 37 37 36 35 36 36
5 5 4 4 6 8 10 12 14 16 18 19 20 20 22 23 24 25 25 25 27 28 29 29 30 30 31 31 32 33 34 34 34 35 35 36 37 37 37 37 37 36 36 36
6 5 5 5 6 8 10 12 13 14 16 18 19 20 22 24 24 25 25 25 26 27 27 28 29 30 31 32 32 33 34 34 34 35 36 36 37 37 37 37 37 37 37 37
7 6 6 6 6 8 10 12 13 13 14 15 17 19 21 22 24 24 24 24 25 26 27 28 28 30 31 31 32 32 33 35 35 35 37 37 37 37 36 37 37 37 37 37
7 7 7 7 7 8 9 11 12 13 14 14 15 17 19 20 21 23 23 24 25 26 26 27 28 29 31 32 33 33 33 34 35 36 37 37 37 37 37 37 37 37 37 37
8 7 7 7 7 8 9 10 11 12 13 15 15 16 17 18 19 21 22 23 24 25 26 26 28 29 30 32 33 33 34 34 35 36 36 37 38 37 37 37 37 37 37 38
8 8 7 7 7 8 9 10 11 12 13 13 14 16 16 17 18 19 20 22 23 24 25 26 27 29 31 31 32 33 34 34 34 35 35 36 36 36 37 38 38 38 38 38
9 9 8 8 8 8 9 10 11 12 12 13 14 15 15 16 17 18 19 20 21 22 24 25 27 28 30 31 32 32 33 34 35 36 36 36 37 38 38 39 39 39 38 38
10 9 9 9 9 9 10 10 11 12 13 13 13 14 15 16 17 18 19 20 21 22 23 25 26 27 29 30 32 33 33 34 35 36 37 37 38 39 39 40 40 40 40 39
11 11 10 10 10 10 11 11 12 14 15 15 14 14 14 15 17 18 19 20 22 22 23 24 26 27 28 30 31 33 34 35 36 36 38 38 39 39 39 39 39 39 40 40
12 12 11 11 11 11 12 12 13 15 16 17 16 15 15 17 18 19 20 21 22 23 23 24 25 27 28 29 31 32 34 35 36 37 37 38 38 37 38 39 39 39 39 39
14 14 12 12 12 13 13 14 14 15 16 17 18 17 17 18 19 20 21 21 22 23 24 25 26 27 28 30 31 32 33 34 35 36 37 37 37 36 37 37 37 37 37 38
16 15 14 13 14 14 14 15 16 17 17 18 18 17 18 18 19 20 21 21 22 23 24 25 26 27 28 29 31 32 33 34 35 35 36 36 36 36 36 36 35 36 36 36
18 17 16 16 16 16 16 17 18 19 19 19 19 19 19 20 20 20 21 22 23 24 24 25 26 27 28 30 31 32 33 34 34 34 35 36 36 36 36 36 36 37 37 37
20 19 18 18 18 18 18 18 19 20 20 21 20 21 21 21 21 21 22 23 24 25 25 25 26 28 29 30 31 32 33 33 34 34 35 35 36 36 36 37 37 37 38 39
21 21 20 19 20 20 19 18 19 20 21 21 21 22 22 23 22 23 24 25 26 26 26 27 28 29 29 30 31 31 31 32 32 33 34 35 36 36 37 37 37 37 38 39
22 22 22 20 21 21 20 20 20 21 22 22 22 22 23 24 24 25 26 26 27 28 28 28 29 30 30 31 31 31 31 31 32 33 34 35 35 36 36 37 37 38 38 39
23 23 24 23 23 23 21 22 23 23 23 24 24 24 25 25 25 25 26 27 27 28 29 30 30 30 31 31 31 31 31 32 33 33 34 35 35 35 36 36 37 38 39 39
26 26 26 26 26 25 24 24 25 25 25 25 26 26 26 27 27 26 27 27 28 29 30 30 31 32 32 32 32 32 32 33 33 33 34 34 34 35 35 36 37 38 38 39
27 28 28 29 29 28 26 27 27 28 27 27 27 27 28 28 29 28 29 29 30 31 31 32 32 32 32 33 33 32 32 32 32 32 32 33 34 35 36 36 37 37 38 38
29 30 30 31 31 30 29 29 29 30 30 30 29 29 30 30 31 31 31 32 32 32 33 33 32 32 32 33 32 32 32 32 31 31 31 32 33 34 35 36 37 38 38 39
32 32 32 33 33 31 31 31 31 31 31 31 32 32 32 32 33 33 33 33 34 34 34 34 34 34 33 33 32 31 31 31 31 31 32 33 34 35 36 37 38 38 39 39
34 34 35 34 33 32 33 33 33 33 33 33 33 33 34 34 34 34 34 35 35 35 35 36 36 35 34 33 32 32 32 32 32 32 32 33 34 35 36 37 37 38 38 39
36 35 36 35 34 34 34 35 35 35 35 35 35 35 36 36 36 35 35 36 35 36 36 36 36 35 34 34 34 34 33 33 33 33 33 34 34 34 35 36 37 38 38 38
36 36 37 37 36 36 36 36 37 37 36 36 36 37 37 37 37 37 36 36 36 36 36 36 35 34 34 34 34 33 33 33 33 33 33 33 33 34 34 35 36 37 37 37
36 37 38 38 37 39 38 38 38 38 38 38 38 38 38 38 38 37 37 37 37 36 36 35 34 34 34 34 33 33 33 33 33 33 33 33 33 34 34 35 36 36 37 37

GEFSCGP_500_meanwind_186.txt.gz
Wind_Speed
9 9 9 10 10 12 13 13 14 15 16 19 20 22 24 26 27 28 28 29 29 30 30 30 29 30 31 32 32 33 33 33 33 33 33 33 33 34 34 34 34 34 33 34
10 10 10 10 10 11 12 12 13 14 15 17 19 21 22 24 25 26 27 28 29 29 29 29 29 29 30 30 31 31 32 32 32 32 32 33 34 34 34 35 35 35 35 35
11 11 11 10 10 10 11 12 12 14 15 17 19 20 21 22 23 24 26 27 28 28 28 28 28 29 29 30 30 31 31 32 32 32 32 33 34 35 36 35 35 35 35 36
12 11 11 11 11 11 11 12 12 12 14 16 18 20 21 21 22 23 24 26 27 28 28 29 29 29 29 29 30 31 31 32 33 34 34 34 35 36 37 37 36 36 36 36
12 11 11 12 12 12 12 12 11 11 12 14 17 19 20 22 23 23 24 25 26 27 27 27 28 29 29 30 30 31 31 33 34 35 35 35 36 37 37 37 37 37 37 37
13 12 12 12 13 13 13 13 13 12 12 13 15 18 19 20 22 22 23 23 25 25 26 27 27 28 29 30 31 31 32 33 34 34 36 36 36 37 37 36 37 38 38 39
13 13 13 13 12 12 13 13 14 15 15 14 15 17 18 18 19 21 21 22 23 25 26 27 28 28 29 30 31 32 33 33 34 34 35 36 36 38 38 38 38 39 40 40
14 14 14 14 13 13 13 13 14 16 16 15 15 16 16 17 18 20 21 22 24 25 26 27 28 29 30 31 31 32 33 34 34 35 36 37 37 38 39 40 40 40 42 42
16 15 15 15 14 14 13 14 15 16 17 17 16 16 17 17 18 19 21 23 24 26 27 28 28 29 30 31 32 32 33 34 35 36 37 37 38 38 39 40 41 41 43 44
17 17 17 17 16 15 15 15 15 16 18 18 17 16 16 17 19 21 22 23 25 26 27 29 30 30 31 32 32 32 33 34 35 35 36 38 39 40 40 40 41 42 43 44
18 18 18 18 17 17 16 16 16 17 18 18 18 17 17 18 19 21 22 24 26 27 27 28 30 30 31 32 32 32 33 33 34 34 36 38 39 41 42 42 43 44 44 43
20 20 19 19 19 18 18 18 18 19 19 19 20 19 18 19 20 22 23 25 26 27 28 29 29 30 31 32 33 34 34 34 35 36 37 38 39 41 42 43 44 44 44 43
22 21 21 21 21 20 20 20 20 21 22 21 21 20 20 20 22 23 23 24 25 26 27 28 30 31 32 33 33 34 35 36 36 36 37 38 39 40 41 42 43 44 44 44
24 23 23 23 23 22 22 22 22 23 24 23 22 21 21 22 22 23 24 24 25 26 27 28 29 30 31 32 33 33 34 35 36 36 36 37 38 39 40 42 43 43 43 43
25 25 24 24 24 24 23 23 24 24 24 25 23 22 22 23 24 25 25 25 26 27 27 28 29 30 31 32 32 33 34 34 35 37 37 38 38 39 40 41 42 42 42 42
26 26 25 25 25 26 24 24 25 25 25 25 25 24 24 25 26 26 27 27 28 28 28 29 30 31 31 32 33 34 35 35 36 37 38 39 39 40 40 40 41 41 41 41
27 28 28 27 27 27 25 25 25 25 25 26 26 26 27 27 28 28 28 29 29 30 30 31 32 32 33 34 34 35 36 37 37 38 38 39 40 40 40 40 40 40 39 40
29 29 30 30 28 28 26 26 27 27 27 28 28 28 29 30 30 30 31 31 31 31 32 32 33 34 34 35 36 36 37 37 38 38 38 39 39 39 40 40 40 39 39 40
31 31 32 32 32 31 28 28 29 29 29 29 30 30 31 31 32 31 33 33 33 34 34 34 35 36 36 37 37 37 38 38 38 38 38 39 39 39 39 39 39 39 39 40
32 32 33 33 34 33 32 31 31 32 32 32 33 33 33 33 33 33 34 35 36 36 36 36 37 37 38 38 38 38 38 39 39 39 39 39 39 38 38 38 38 39 39 39
34 34 34 34 35 35 34 34 34 34 34 34 35 35 35 35 35 36 36 37 37 37 38 38 38 38 39 39 40 39 40 40 40 40 39 39 38 38 39 38 38 38 38 38
36 36 36 36 36 35 35 35 35 35 36 37 37 37 37 37 37 37 38 38 38 38 39 39 40 40 40 41 41 41 41 41 40 39 38 38 38 37 37 37 37 38 38 38
38 38 38 37 37 36 36 37 37 38 38 38 38 38 38 38 38 38 38 39 39 39 40 40 41 41 41 41 42 41 41 40 39 38 38 38 37 37 37 37 37 37 37 38
40 39 40 39 39 38 38 39 39 39 40 39 39 39 39 39 39 39 39 38 39 39 40 41 41 41 41 41 41 40 40 39 38 38 38 38 37 37 36 36 37 37 37 38
41 41 41 41 40 40 40 41 41 41 41 41 40 40 40 40 40 40 40 39 39 39 40 41 41 41 41 40 39 39 39 39 38 38 38 37 37 37 37 37 37 37 37 37
41 42 42 42 41 42 42 42 43 43 42 42 42 41 41 41 40 40 39 39 40 40 40 40 40 40 39 38 38 38 39 39 38 37 37 36 37 37 37 36 36 36 37 37

GEFSCGP_500_meanwind_192.txt.gz
Wind_Speed
12 12 10 10 10 11 12 12 13 13 15 15 16 17 17 19 20 22 24 26 29 29 29 29 30 32 32 33 34 34 34 34 34 35 36 35 35 34 34 33 34 34 33 33
13 12 12 11 11 11 12 13 12 13 13 15 16 17 18 19 20 21 23 24 27 28 28 29 29 29 30 31 32 34 33 33 34 35 36 36 35 34 34 35 34 35 35 35
13 13 13 13 12 12 12 13 13 13 14 15 16 17 19 20 20 21 22 24 25 26 27 28 28 28 29 30 31 32 32 32 33 34 36 36 36 36 35 35 35 36 36 36
13 13 13 13 12 13 13 13 13 13 14 14 16 17 17 19 20 21 22 24 24 25 26 27 27 28 29 30 31 32 32 33 34 35 36 37 37 38 37 37 37 37 38 38
13 13 13 13 13 13 12 13 13 13 13 13 14 16 16 17 20 21 22 24 25 25 26 26 27 28 29 30 31 32 32 32 33 34 35 36 37 38 38 39 39 39 38 39
15 14 14 14 13 13 13 13 13 13 13 13 12 14 15 16 18 20 21 23 24 25 25 26 27 28 29 29 30 31 32 32 33 34 35 36 37 38 38 39 39 39 39 39
16 15 15 14 14 13 13 13 13 13 13 13 13 14 15 15 17 18 19 21 23 24 24 25 25 26 27 28 29 30 31 32 33 33 34 35 36 37 37 38 39 39 39 39
16 16 15 15 15 15 14 14 14 15 15 15 14 15 15 15 16 18 19 20 21 22 23 24 24 25 26 27 28 30 31 31 32 33 34 35 36 36 36 37 38 39 40 40
17 17 16 16 16 16 16 16 16 16 17 17 16 15 15 15 16 18 19 21 21 23 23 24 25 25 26 28 29 30 31 32 32 33 34 35 35 35 36 36 37 38 39 41
19 18 18 17 18 17 17 17 17 18 19 18 17 16 16 16 17 18 20 21 23 23 24 25 26 27 28 29 29 30 31 32 32 33 33 34 35 35 36 36 37 38 39 41
20 20 19 19 19 19 18 18 18 18 19 20 19 17 17 17 18 19 20 22 23 24 25 27 28 29 30 31 31 31 31 31 32 33 34 35 36 36 37 38 39 39 39 40
21 21 20 20 20 20 20 19 19 20 20 20 20 18 18 19 19 20 21 22 24 25 26 27 29 30 30 31 31 31 32 32 33 34 35 36 37 37 37 38 38 39 39 41
23 23 22 22 22 21 21 21 21 21 21 21 20 19 19 21 21 22 22 23 24 25 26 27 28 30 30 31 31 32 33 34 34 35 36 37 37 37 37 37 38 39 40 41
25 25 24 24 24 23 23 23 23 23 23 22 21 20 20 21 23 23 24 24 25 26 27 28 29 29 30 31 32 33 34 35 35 36 37 37 37 38 38 38 39 40 41 42
27 26 26 26 26 25 25 24 24 25 24 25 22 22 21 23 24 25 25 25 26 27 28 28 29 30 31 32 33 34 35 35 36 36 37 37 38 39 39 40 40 41 42 42
29 29 28 28 27 27 27 25 25 26 26 26 25 24 24 24 25 26 27 27 27 28 29 29 30 30 31 33 33 34 35 36 36 36 37 38 38 39 40 41 41 41 42 43
31 31 30 29 29 30 29 27 27 27 27 27 27 27 27 27 26 27 28 29 29 29 30 31 31 32 33 33 34 35 36 36 37 37 38 38 39 40 41 41 41 42 42 43
33 33 33 32 32 33 30 29 29 29 29 29 29 29 29 29 29 29 29 30 30 31 32 32 33 33 34 34 35 36 37 37 38 38 39 39 40 41 41 42 42 42 42 42
34 34 34 34 34 35 32 31 31 31 30 30 30 30 30 30 29 29 30 31 31 32 33 33 34 34 35 36 36 37 38 38 39 40 40 40 40 41 41 42 42 41 41 41
36 35 35 35 36 36 34 33 33 33 32 31 31 31 31 31 31 30 31 31 32 33 34 34 35 35 36 37 37 38 38 39 40 40 40 40 40 40 40 40 40 40 40 40
36 37 37 36 36 36 34 34 33 34 33 33 33 33 33 33 32 32 32 32 33 34 35 35 35 36 37 37 37 38 38 39 39 39 39 39 40 40 40 40 40 40 39 40
38 38 38 38 38 36 35 34 34 35 35 35 34 34 34 34 34 33 33 34 34 35 36 36 37 37 37 38 38 38 38 39 39 39 39 39 39 39 39 39 39 40 40 40
39 39 39 39 38 37 36 36 36 36 36 36 36 35 35 35 35 35 35 35 36 36 37 38 38 38 38 38 38 38 38 39 39 38 39 39 38 38 38 38 38 39 39 39
39 39 40 39 39 38 37 37 37 38 37 37 37 37 37 37 37 37 36 36 37 37 37 37 38 38 38 38 38 38 38 39 39 38 38 38 38 38 38 38 38 38 38 37
40 40 40 40 39 39 38 39 39 39 39 39 38 38 38 38 38 37 37 37 37 37 37 38 38 38 38 38 38 39 39 39 39 38 38 37 37 37 37 37 37 37 37 37
40 40 40 39 39 40 40 40 40 39 39 39 39 39 38 38 38 38 37 37 37 37 38 38 38 38 38 38 38 39 39 39 39 38 38 37 37 37 37 37 36 36 36 36

GEFSCGP_500_meanwind_198.txt.gz
Wind_Speed
15 15 15 15 15 15 15 15 15 14 15 16 16 17 17 18 19 20 22 23 25 26 27 28 30 30 30 31 32 33 35 35 36 37 37 37 37 37 36 37 37 37 37 38
16 15 16 16 16 15 15 15 14 14 16 17 17 16 17 18 20 21 22 23 25 26 27 29 30 29 31 31 31 32 34 35 35 36 36 37 36 36 37 37 38 38 38 38
15 15 16 16 16 17 16 15 15 16 17 17 18 17 17 18 19 21 21 21 23 25 26 28 29 29 30 30 30 31 32 34 35 36 36 36 36 37 37 38 39 39 38 39
15 15 16 17 17 18 17 17 17 17 18 17 18 17 16 17 18 19 21 21 22 24 25 27 28 29 30 30 31 31 31 32 34 35 36 36 36 37 38 39 39 40 39 39
15 16 16 17 18 18 18 17 17 18 18 17 17 18 15 16 18 19 20 21 22 23 24 25 27 28 29 30 31 31 31 32 33 34 35 35 37 38 38 38 37 39 40 40
16 16 17 18 18 18 18 18 18 18 18 18 17 18 16 15 17 18 20 20 21 23 23 24 26 28 28 29 30 31 31 33 34 34 35 35 36 37 37 38 38 39 40 40
18 18 18 18 18 18 18 18 19 19 18 18 18 18 18 16 17 18 19 20 21 22 23 25 25 27 28 28 29 30 31 32 33 34 35 36 36 37 37 38 39 39 39 40
20 20 19 19 19 20 19 19 19 19 19 19 18 18 17 17 17 18 19 19 20 22 23 23 25 26 27 28 28 29 30 31 32 34 35 35 37 37 38 39 39 40 39 40
22 22 21 21 21 21 21 20 20 21 21 20 19 19 18 17 18 19 20 20 21 22 23 23 24 25 26 28 29 30 31 31 32 33 34 35 36 37 37 38 39 39 39 39
24 24 23 22 22 21 22 21 22 22 23 22 21 20 20 19 19 20 21 22 23 24 24 25 26 26 27 28 29 30 31 32 33 34 35 36 37 37 38 38 38 38 39 40
26 26 25 24 23 23 23 23 23 23 24 24 23 21 21 21 21 21 22 24 25 25 26 27 27 27 28 29 30 31 32 33 33 34 35 36 37 37 38 39 39 40 40 41
27 28 27 26 26 25 25 25 24 25 25 26 26 24 22 22 23 23 23 25 26 27 28 29 29 29 30 30 31 32 33 34 34 35 35 36 37 38 39 40 41 41 42 43
29 29 29 28 27 27 27 26 26 27 27 27 27 26 25 25 25 25 25 26 27 28 29 30 31 31 32 32 33 33 33 34 34 35 36 37 38 39 40 41 42 42 42 43
31 31 30 30 29 29 28 28 27 28 28 28 28 27 26 28 27 27 28 28 28 29 30 31 31 32 33 33 34 34 34 34 35 36 37 37 38 39 40 41 42 42 42 43
33 33 32 32 32 31 31 29 29 29 29 30 29 28 28 29 29 29 29 30 30 30 31 32 32 33 33 34 35 35 35 35 36 36 37 38 39 39 40 41 41 42 42 43
35 35 34 33 33 33 32 31 31 32 31 31 31 30 29 31 30 30 30 31 31 31 32 33 33 32 33 34 34 35 36 36 36 37 37 39 39 40 41 41 42 43 43 44
37 37 36 35 35 36 34 32 33 33 32 32 33 31 32 32 31 31 32 32 32 32 32 33 33 33 34 34 35 36 36 37 37 38 38 39 40 40 41 42 42 43 43 43
38 38 38 38 37 38 35 34 34 34 34 34 34 33 33 33 33 33 33 34 34 34 34 34 34 35 36 36 36 37 37 37 38 39 39 39 40 41 41 41 42 42 43 44
40 40 40 40 41 40 37 36 36 36 35 35 35 35 35 35 34 34 33 34 35 35 35 35 36 36 37 37 37 38 38 38 39 40 40 41 41 41 41 42 42 42 42 43
41 41 41 41 42 42 39 38 38 38 38 36 37 37 36 36 36 35 35 35 35 36 36 36 37 37 38 38 39 39 39 40 40 41 41 41 41 42 42 42 42 42 42 42
40 41 41 41 43 43 40 40 39 39 39 38 38 38 38 37 37 37 36 36 36 36 36 36 37 38 38 39 40 40 40 41 42 42 42 41 41 41 41 41 42 42 41 41
40 41 41 42 43 42 40 40 40 40 40 40 39 38 38 38 37 37 37 37 37 37 37 37 37 38 38 39 40 40 41 41 42 41 41 41 41 41 41 41 41 41 41 41
42 42 43 43 43 42 41 41 41 41 42 41 40 39 39 38 38 38 38 39 38 38 38 38 38 38 39 39 39 40 40 41 40 40 40 40 40 40 41 41 40 40 40 41
43 42 43 44 43 42 42 42 42 42 42 41 41 40 40 40 39 39 39 39 39 39 39 39 39 39 39 40 40 40 40 41 41 41 40 40 40 41 40 40 41 41 41 40
43 43 43 44 43 43 43 42 42 41 41 41 41 41 41 41 41 41 40 40 40 40 40 40 39 39 39 39 39 40 41 41 41 41 41 41 40 40 40 40 40 40 40 40
41 43 43 43 42 43 43 42 42 42 42 41 41 41 42 42 42 42 42 42 42 41 41 41 40 39 39 39 39 40 41 41 41 40 40 40 40 40 40 40 39 39 40 40

GEFSCGP_500_meanwind_204.txt.gz
Wind_Speed
13 14 13 13 14 14 14 13 14 14 15 16 16 16 16 17 18 19 19 19 19 21 23 25 26 28 29 29 30 31 33 33 33 33 34 33 34 35 36 36 37 38 38 38
14 14 13 13 13 13 14 14 14 14 16 16 16 16 16 17 17 17 18 18 19 20 21 23 25 25 26 27 29 31 31 32 32 32 33 33 33 35 35 36 36 37 38 39
14 14 13 13 14 14 14 15 15 15 15 16 17 16 17 16 17 17 17 18 19 20 22 22 24 25 26 27 28 29 29 31 32 33 33 33 33 35 36 37 37 37 38 39
14 14 14 14 14 15 15 16 16 16 16 16 17 17 16 17 17 18 18 19 20 21 23 23 24 24 24 26 28 29 29 30 31 33 34 34 33 34 35 36 37 38 39 40
15 15 15 15 16 16 17 17 17 17 17 16 17 17 16 17 18 18 18 19 20 21 22 24 23 23 24 26 26 27 28 29 31 32 33 33 33 34 35 36 37 38 38 39
16 16 16 17 17 18 18 19 19 19 18 18 17 17 16 16 17 18 18 19 20 20 21 23 24 24 25 25 26 27 27 28 30 32 33 33 33 34 35 35 36 37 38 39
17 18 18 18 19 19 20 20 20 21 20 19 18 18 16 16 16 17 17 18 19 19 20 21 23 24 25 25 26 27 27 28 30 31 31 32 34 34 35 36 36 37 38 39
20 20 20 20 21 21 21 21 22 22 22 20 19 19 17 17 16 17 18 18 18 19 20 20 21 23 23 24 25 26 27 29 30 31 31 32 33 34 35 36 37 38 39 39
22 22 22 22 22 22 22 23 23 23 24 23 21 20 18 18 17 18 18 19 20 20 20 20 21 22 23 23 25 26 27 28 30 31 31 32 32 33 34 36 37 38 39 40
24 24 24 24 24 24 24 24 24 24 25 25 24 22 20 19 18 19 19 20 21 22 22 22 22 22 24 25 27 27 28 28 30 32 32 32 33 34 35 36 37 37 38 39
26 26 26 26 25 25 26 26 26 26 26 26 26 23 21 20 20 21 22 23 23 24 24 23 24 24 25 27 28 28 29 30 31 32 33 33 34 34 34 35 36 37 38 38
28 29 28 27 27 27 27 27 27 27 27 27 26 24 22 22 22 23 23 24 25 25 25 25 25 26 26 27 28 29 30 31 32 33 33 34 35 35 35 35 36 37 38 39
30 30 30 29 29 28 28 28 28 29 29 29 28 26 24 24 24 24 25 25 26 27 27 27 27 28 28 28 29 30 30 31 32 33 34 35 36 36 36 36 37 38 39 39
32 32 31 31 30 30 30 29 29 30 30 30 28 26 25 25 26 26 27 27 28 29 29 29 30 30 30 30 30 31 32 33 34 35 36 36 37 37 38 38 39 40 40 40
33 33 33 32 32 31 31 31 31 31 31 31 29 28 27 27 28 29 29 29 30 30 31 31 32 32 32 32 32 33 34 35 36 37 37 38 38 39 39 40 40 40 41 42
34 35 34 34 33 34 33 32 32 32 32 32 31 29 28 30 31 31 31 31 32 32 32 33 33 34 33 33 34 34 35 35 36 37 39 40 40 41 41 41 41 42 42 43
36 37 36 35 35 36 35 33 33 33 33 33 33 31 31 32 33 33 33 33 33 34 34 35 35 35 35 35 35 35 35 36 37 38 39 40 41 42 43 43 43 43 42 42
37 37 37 37 37 37 35 34 34 34 34 34 34 34 34 34 34 34 34 35 35 35 36 36 36 36 36 36 36 36 36 37 38 38 39 41 42 42 43 43 43 43 42 42
37 37 37 37 38 38 35 35 35 35 34 34 35 34 35 35 36 36 36 36 36 36 36 36 36 37 37 37 38 38 38 38 39 40 40 41 42 43 43 43 43 43 43 42
37 37 37 38 39 38 36 36 35 36 36 35 36 36 36 36 37 36 37 38 38 38 38 38 37 38 38 38 39 39 39 39 39 40 41 42 43 43 43 42 42 43 43 43
36 37 37 38 39 39 37 37 37 37 37 37 37 37 37 38 38 38 38 39 39 39 39 39 38 38 39 39 40 40 40 40 41 41 41 42 42 43 42 42 42 43 43 43
36 37 37 38 39 39 39 38 38 38 38 38 37 37 37 37 38 39 39 39 40 40 40 40 40 40 40 40 40 40 41 41 42 42 41 41 41 41 41 41 42 42 43 43
36 37 38 39 39 39 39 39 39 39 38 38 38 37 37 38 38 39 40 40 40 40 40 41 40 40 40 40 40 41 41 41 41 41 40 40 40 40 41 42 42 42 42 42
36 36 38 38 37 37 38 39 39 38 38 38 38 39 39 39 39 40 40 40 40 40 40 40 40 40 40 40 41 41 41 41 40 39 39 39 40 40 40 41 41 41 41 42
36 37 39 39 37 37 37 37 38 38 38 38 39 39 39 40 40 39 39 39 40 40 40 40 40 40 40 39 39 39 39 39 39 39 40 40 39 39 39 39 39 40 40 41
37 38 39 38 37 38 37 36 37 38 38 38 38 39 40 40 40 40 40 40 40 40 40 40 40 39 39 38 38 38 38 38 38 39 39 39 39 39 39 38 38 39 39 39